| time (UTC) | temp C | wind direction | speed KPH | gust KPH | rain 1hr cm | rain 24hr cm | rain mn cm | humidity % | barometer mb |
| 20260507083830 | 3 | 0 | 0.0 | 8.0 | 0.00 | 0.03 | 0.00 | 89 | 1014.7 |
| 20260507082326 | 3 | 331 | 1.6 | 4.8 | 0.00 | 0.03 | 0.03 | 89 | 1014.6 |
| 20260507080822 | 3 | 0 | 0.0 | 4.8 | 0.00 | 0.03 | 0.03 | 90 | 1014.5 |
| 20260507075318 | 3 | 0 | 0.0 | 0.0 | 0.00 | 0.03 | 0.03 | 90 | 1014.4 |
| 20260507073814 | 3 | 0 | 0.0 | 0.0 | 0.00 | 0.03 | 0.03 | 90 | 1014.3 |
| 20260507072310 | 3 | 0 | 0.0 | 0.0 | 0.00 | 0.03 | 0.03 | 89 | 1014.1 |
| 20260507070806 | 3 | 0 | 0.0 | 0.0 | 0.00 | 0.03 | 0.03 | 89 | 1014.1 |
| 20260507065305 | 3 | 0 | 0.0 | 0.0 | 0.00 | 0.03 | 0.03 | 88 | 1014.0 |
| 20260507063758 | 3 | 0 | 0.0 | 11.3 | 0.00 | 0.03 | 0.03 | 89 | 1013.8 |
| 20260507062254 | 4 | 0 | 0.0 | 0.0 | 0.00 | 0.03 | 0.03 | 89 | 1013.6 |
| 20260507060750 | 4 | 0 | 0.0 | 0.0 | 0.00 | 0.03 | 0.03 | 88 | 1013.5 |
| 20260507055246 | 4 | 0 | 0.0 | 0.0 | 0.00 | 0.03 | 0.03 | 88 | 1013.4 |
| 20260507052236 | 4 | 322 | 4.8 | 9.7 | 0.03 | 0.03 | 0.03 | 85 | 1013.2 |
| 20260507050730 | 5 | 333 | 1.6 | 17.7 | 0.03 | 0.03 | 0.03 | 86 | 1013.2 |
| 20260507045226 | 5 | 351 | 6.4 | 17.7 | 0.03 | 0.03 | 0.03 | 87 | 1013.1 |
| 20260507043722 | 5 | 334 | 4.8 | 17.7 | 0.03 | 0.03 | 0.03 | 84 | 1013.1 |
| 20260507042218 | 6 | 0 | 0.0 | 11.3 | 0.00 | 0.00 | 0.00 | 78 | 1013.0 |
| 20260507040714 | 6 | 316 | 8.0 | 14.5 | 0.00 | 0.00 | 0.00 | 76 | 1012.6 |
| 20260507035210 | 6 | 312 | 1.6 | 11.3 | 0.00 | 0.00 | 0.00 | 76 | 1012.5 |
| 20260507033706 | 6 | 300 | 1.6 | 6.4 | 0.00 | 0.00 | 0.00 | 76 | 1012.4 |
| 20260507032202 | 6 | 0 | 0.0 | 11.3 | 0.00 | 0.00 | 0.00 | 74 | 1012.4 |
| 20260507030658 | 6 | 0 | 0.0 | 6.4 | 0.00 | 0.00 | 0.00 | 73 | 1012.3 |
| 20260507025154 | 7 | 331 | 4.8 | 11.3 | 0.00 | 0.00 | 0.00 | 72 | 1012.2 |
| 20260507022144 | 7 | 0 | 0.0 | 9.7 | 0.00 | 0.00 | 0.00 | 70 | 1012.0 |
| 20260507020640 | 7 | 326 | 6.4 | 17.7 | 0.00 | 0.00 | 0.00 | 70 | 1012.0 |
| 20260507013630 | 7 | 333 | 4.8 | 16.1 | 0.00 | 0.00 | 0.00 | 69 | 1011.9 |
| 20260507012126 | 7 | 311 | 6.4 | 17.7 | 0.00 | 0.00 | 0.00 | 67 | 1011.8 |
| 20260507005114 | 8 | 321 | 6.4 | 16.1 | 0.00 | 0.00 | 0.00 | 64 | 1011.6 |
| 20260507003610 | 8 | 321 | 11.3 | 17.7 | 0.00 | 0.00 | 0.00 | 62 | 1011.5 |
| 20260507002106 | 8 | 315 | 9.7 | 17.7 | 0.00 | 0.00 | 0.00 | 60 | 1011.4 |
| 20260507000602 | 8 | 310 | 4.8 | 16.1 | 0.00 | 0.00 | 0.00 | 60 | 1011.4 |
| 20260506235056 | 8 | 329 | 6.4 | 16.1 | 0.00 | 0.00 | 0.00 | 61 | 1011.3 |
| 20260506233552 | 8 | 311 | 4.8 | 16.1 | 0.00 | 0.00 | 0.00 | 61 | 1011.3 |
| 20260506232048 | 8 | 333 | 6.4 | 20.9 | 0.00 | 0.00 | 0.00 | 58 | 1011.1 |
| 20260506230544 | 9 | 324 | 11.3 | 19.3 | 0.00 | 0.00 | 0.00 | 59 | 1011.0 |
| 20260506225040 | 9 | 336 | 8.0 | 22.5 | 0.00 | 0.00 | 0.00 | 59 | 1010.9 |
| 20260506223536 | 9 | 309 | 4.8 | 16.1 | 0.00 | 0.00 | 0.00 | 59 | 1010.8 |
| 20260506222032 | 9 | 339 | 3.2 | 12.9 | 0.00 | 0.00 | 0.00 | 59 | 1010.7 |
| 20260506220528 | 8 | 330 | 4.8 | 17.7 | 0.00 | 0.00 | 0.00 | 61 | 1010.7 |
| 20260506215024 | 9 | 309 | 12.9 | 20.9 | 0.00 | 0.00 | 0.00 | 59 | 1010.5 |
| 20260506213520 | 9 | 310 | 8.0 | 14.5 | 0.00 | 0.00 | 0.00 | 58 | 1010.5 |
| 20260506212014 | 8 | 326 | 4.8 | 16.1 | 0.00 | 0.00 | 0.00 | 58 | 1010.4 |
| 20260506210510 | 9 | 280 | 9.7 | 24.1 | 0.00 | 0.00 | 0.00 | 58 | 1010.3 |
| 20260506205004 | 8 | 306 | 6.4 | 17.7 | 0.00 | 0.00 | 0.00 | 60 | 1010.2 |
| 20260506203500 | 8 | 275 | 8.0 | 17.7 | 0.00 | 0.00 | 0.00 | 62 | 1010.0 |
| 20260506201956 | 8 | 313 | 6.4 | 11.3 | 0.00 | 0.00 | 0.00 | 62 | 1009.9 |
| 20260506200452 | 8 | 303 | 1.6 | 12.9 | 0.00 | 0.00 | 0.00 | 62 | 1009.9 |
| 20260506194948 | 8 | 317 | 8.0 | 16.1 | 0.00 | 0.00 | 0.00 | 59 | 1009.8 |
| 20260506193442 | 8 | 0 | 0.0 | 0.0 | 0.00 | 0.00 | 0.00 | 57 | 1009.7 |
| 20260506191938 | 8 | 0 | 0.0 | 4.8 | 0.00 | 0.00 | 0.00 | 58 | 1009.6 |
| 20260506190432 | 7 | 0 | 0.0 | 4.8 | 0.00 | 0.00 | 0.00 | 59 | 1009.6 |
| 20260506184928 | 7 | 299 | 3.2 | 8.0 | 0.00 | 0.00 | 0.00 | 63 | 1009.6 |
| 20260506183424 | 7 | 294 | 3.2 | 8.0 | 0.00 | 0.00 | 0.00 | 63 | 1009.4 |
| 20260506181920 | 7 | 252 | 6.4 | 9.7 | 0.00 | 0.00 | 0.00 | 63 | 1009.4 |
| 20260506180416 | 6 | 0 | 0.0 | 6.4 | 0.00 | 0.00 | 0.00 | 64 | 1009.3 |
| 20260506174912 | 6 | 286 | 3.2 | 6.4 | 0.00 | 0.00 | 0.00 | 64 | 1009.3 |
| 20260506173408 | 6 | 0 | 0.0 | 3.2 | 0.00 | 0.00 | 0.00 | 65 | 1009.2 |
| 20260506171904 | 5 | 0 | 0.0 | 0.0 | 0.00 | 0.00 | 0.00 | 68 | 1009.3 |
| 20260506170358 | 5 | 0 | 0.0 | 3.2 | 0.00 | 0.00 | 0.00 | 69 | 1009.3 |
| 20260506163348 | 4 | 0 | 0.0 | 0.0 | 0.00 | 0.00 | 0.00 | 71 | 1009.0 |
| 20260506161844 | 4 | 0 | 0.0 | 0.0 | 0.00 | 0.00 | 0.00 | 72 | 1008.9 |
| 20260506160340 | 3 | 0 | 0.0 | 0.0 | 0.00 | 0.00 | 0.00 | 75 | 1008.8 |
| 20260506154836 | 3 | 0 | 0.0 | 0.0 | 0.00 | 0.00 | 0.00 | 75 | 1008.9 |
| 20260506153332 | 3 | 0 | 0.0 | 0.0 | 0.00 | 0.00 | 0.00 | 76 | 1008.8 |
| 20260506151828 | 3 | 0 | 0.0 | 0.0 | 0.00 | 0.00 | 0.00 | 76 | 1008.8 |
| 20260506150318 | 3 | 0 | 0.0 | 0.0 | 0.00 | 0.00 | 0.00 | 77 | 1008.7 |
| 20260506144814 | 3 | 0 | 0.0 | 0.0 | 0.00 | 0.00 | 0.00 | 77 | 1008.7 |
| 20260506143310 | 2 | 0 | 0.0 | 0.0 | 0.00 | 0.00 | 0.00 | 77 | 1008.6 |
| 20260506141806 | 2 | 0 | 0.0 | 0.0 | 0.00 | 0.00 | 0.00 | 76 | 1008.6 |
| 20260506140302 | 2 | 0 | 0.0 | 0.0 | 0.00 | 0.00 | 0.00 | 75 | 1008.7 |
| 20260506134758 | 2 | 0 | 0.0 | 0.0 | 0.00 | 0.00 | 0.00 | 74 | 1008.7 |
| 20260506133254 | 2 | 0 | 0.0 | 0.0 | 0.00 | 0.00 | 0.00 | 73 | 1008.6 |
| 20260506131751 | 3 | 0 | 0.0 | 0.0 | 0.00 | 0.00 | 0.00 | 72 | 1008.6 |
| 20260506130246 | 3 | 0 | 0.0 | 0.0 | 0.00 | 0.00 | 0.00 | 71 | 1008.3 |
| 20260506124740 | 3 | 0 | 0.0 | 0.0 | 0.00 | 0.00 | 0.00 | 69 | 1008.3 |
| 20260506123237 | 3 | 0 | 0.0 | 0.0 | 0.00 | 0.00 | 0.00 | 68 | 1008.2 |
| 20260506121732 | 3 | 0 | 0.0 | 0.0 | 0.00 | 0.00 | 0.00 | 67 | 1008.0 |
| 20260506120228 | 3 | 0 | 0.0 | 0.0 | 0.00 | 0.00 | 0.00 | 67 | 1008.0 |
| 20260506114724 | 3 | 0 | 0.0 | 0.0 | 0.00 | 0.00 | 0.00 | 69 | 1007.9 |
| 20260506113220 | 3 | 0 | 0.0 | 0.0 | 0.00 | 0.00 | 0.00 | 69 | 1007.8 |
| 20260506111716 | 3 | 0 | 0.0 | 0.0 | 0.00 | 0.00 | 0.00 | 71 | 1007.8 |
| 20260506110212 | 3 | 0 | 0.0 | 0.0 | 0.00 | 0.00 | 0.00 | 72 | 1007.7 |
| 20260506104709 | 3 | 0 | 0.0 | 1.6 | 0.00 | 0.00 | 0.00 | 70 | 1007.6 |
| 20260506103204 | 3 | 0 | 0.0 | 0.0 | 0.00 | 0.00 | 0.00 | 68 | 1007.4 |
| 20260506101700 | 4 | 0 | 0.0 | 0.0 | 0.00 | 0.00 | 0.00 | 66 | 1007.3 |
| 20260506100156 | 4 | 0 | 0.0 | 0.0 | 0.00 | 0.00 | 0.00 | 68 | 1007.3 |
| 20260506094652 | 4 | 0 | 0.0 | 0.0 | 0.00 | 0.00 | 0.00 | 66 | 1007.2 |
| 20260506093148 | 4 | 0 | 0.0 | 0.0 | 0.00 | 0.00 | 0.00 | 66 | 1007.1 |
| 20260506091644 | 4 | 0 | 0.0 | 0.0 | 0.00 | 0.00 | 0.00 | 64 | 1007.2 |